Location: Cambroso
(45.2833°N, 12.0850°E)
Time: 08:50:59
(UTC+00:00)

CZ-3B R/B - Visible Passes

Search period start: 09 May 2021 00:00
Search period end: 19 May 2021 00:00
Orbit: 303 x 17373 km, 54.8° (Epoch: 08 May)

Date Brightness Start Highest point End Pass type
(mag) Time Alt. Az. Time Alt. Az. Time Alt. Az.
09 May 3.9 02:06:19 10° WSW 02:24:03 57° NNW 02:28:21 10° NE visible
09 May 5.6 22:18:14 10° SSW 22:59:48 44° SE 23:08:27 10° ENE visible
11 May 4.2 00:45:08 19° SW 01:03:06 90° SSE 01:08:35 10° NE visible
11 May 6.3 20:57:10 10° S 21:36:18 29° SE 21:47:12 10° ENE visible
12 May 4.1 02:53:28 10° W 03:04:27 37° NNW 03:07:58 10° NE visible
12 May 4.9 23:02:11 10° SSW 23:41:28 62° SE 23:48:34 10° ENE visible
13 May 6.6 19:47:09 10° SSE 20:12:12 17° SE 20:23:23 10° E visible
14 May 4.0 01:23:00 10° WSW 01:43:32 62° NNW 01:48:09 10° NE visible
14 May 5.7 21:34:19 10° S 22:18:44 42° SE 22:28:02 10° ENE visible
15 May 4.3 23:49:50 10° SW 00:22:20 86° SE 00:28:14 10° NE visible
16 May 6.3 20:14:31 10° S 20:54:54 28° SE 21:06:29 10° ENE visible
17 May 4.1 02:10:43 10° W 02:23:46 41° NNW 02:27:36 10° NE visible
17 May 5.0 22:17:22 10° SSW 23:00:23 59° SE 23:08:02 10° ENE visible
18 May 6.7 19:06:44 10° SSE 19:30:36 16° ESE 19:41:56 10° E visible
